Regional Weather Roundup
Issued by NWS

Home | Current Version | Previous Version | Graphics & Text | Print | Product List | Glossary Off
Versions: 1 2 3 4 5 6 7 8 9 10 11 12 13 14 15 16 17 18 19 20 21 22 23 24 25 26 27 28 29 30 31 32 33 34 35 36 37 38 39 40 41 42 43 44 45 46 47 48 49 50

000
ASUS43 KLSX 270407
RWRMO

WEATHER SUMMARY FOR MISSOURI
NATIONAL WEATHER SERVICE SPRINGFIELD MO
1100 PM CDT THU MAY 26 2016

NOTE: "FAIR" INDICATES FEW OR NO CLOUDS BELOW 12,000 FEET WITH NO
       SIGNIFICANT WEATHER AND/OR OBSTRUCTIONS TO VISIBILITY.
       CURRENT SKY AND/OR WEATHER CONDITIONS ARE NOT AVAILABLE FOR
       CHILLICOTHE AND FARMINGTON.

MOZ001>031-035>038-043-044-053-054-270500-
...NORTHERN AND WESTERN MISSOURI...

CITY           SKY/WX    TMP DP  RH WIND       PRES   REMARKS
KANSAS CTY INT RAIN      62  60  93 N15       29.88F FOG
KANSAS C DTWN  LGT RAIN  64  62  93 NE14      29.87F
LEE`S SUMMIT   CLOUDY    62  61  96 N15       29.88F
ST JOSEPH      RAIN      63  60  90 E12       29.92F
CHILLICOTHE      N/A     64  63  96 CALM      29.95R
KIRKSVILLE     LGT RAIN  64  62  93 SE3       29.95R

$$
MOZ066>068-077>081-088>096-101>105-270500-
...SOUTHWEST MISSOURI...

CITY           SKY/WX    TMP DP  RH WIND       PRES   REMARKS
SPRINGFIELD    PTCLDY    70  62  76 SE12      29.86R
JOPLIN         CLEAR     67  59  75 E6        29.81F

$$
MOZ032>034-039>042-045>050-055>058-069>072-270500-
...CENTRAL MISSOURI...

CITY           SKY/WX    TMP DP  RH WIND       PRES   REMARKS
COLUMBIA       HVY RAIN  65  63  93 NE10      29.90S FOG
JEFFERSON CITY LGT RAIN  65  63  93 NE10      29.89R
ROLLA          MOCLDY    66  63  90 E12       29.89S
SEDALIA        CLOUDY    64  62  93 MISG      29.88F
WHITEMAN AFB   CLOUDY    62  62 100 NE6       29.85F
WARRENSBURG    CLOUDY    61  61 100 N7        29.86F

$$
MOZ051-052-059>065-270500-
...EAST CENTRAL MISSOURI...

CITY           SKY/WX    TMP DP  RH WIND       PRES   REMARKS
ST LOUIS INTL  TSTM      74  65  73 S14G21    29.92S
SPIRIT OF STL  CLOUDY    74  67  78 S8G22     29.90R THUNDER
ST CHARLES     TSTM      71  68  90 S21G32    29.90S FOG

$$
MOZ072>076-082>087-097>100-106>115-270500-
...SOUTH CENTRAL AND SOUTHEAST MISSOURI...

CITY           SKY/WX    TMP DP  RH WIND       PRES   REMARKS
CAPE GIRARDEAU LGT RAIN  67  65  93 S17G23    29.94F
FARMINGTON     LGT RAIN  67  64  90 S8        29.97R
POPLAR BLUFF   CLOUDY    68  65  90 S15G22    29.98R
WEST PLAINS    MOCLDY    68  64  87 SE8       29.93R

$$



USA.gov is the U.S. government's official web portal to all federal, state and local government web resources and services.